Theta_e
316 316 316 317 317 316 317 315 316 315 314 315 313 312 313 315 316 318 320 324 326 325 326 326 327 326 322 320 319 319 318 317 315 311 310 309 305 300 299 299 298 299 297 296
318 316 316 318 316 316 315 316 315 315 315 311 312 312 311 313 314 318 320 322 325 325 324 322 323 323 321 320 319 318 317 315 311 308 306 302 299 301 298 297 300 296 296 295
315 312 314 314 314 315 315 314 314 314 312 311 311 310 312 314 316 317 318 318 319 321 322 321 320 319 320 320 318 316 312 310 307 303 300 300 299 299 301 300 297 296 294 294
310 310 312 314 313 313 313 311 310 311 311 311 310 312 313 315 316 317 318 319 319 320 320 320 320 319 319 316 313 310 307 303 300 298 298 297 299 301 299 295 294 294 293 292
312 313 313 316 311 311 312 313 312 311 310 312 313 313 313 313 313 314 315 317 319 320 320 319 318 316 315 311 307 303 300 297 296 297 298 299 300 297 295 293 292 292 292 292
307 313 315 315 313 312 310 311 311 311 311 312 312 308 309 312 312 313 313 313 315 315 316 314 312 310 308 304 301 298 297 297 298 298 300 296 294 293 291 290 290 290 290 290
304 309 311 310 312 311 311 310 312 313 313 312 310 309 312 311 311 311 311 311 310 309 309 307 304 303 302 298 297 297 298 299 301 297 296 294 293 291 290 290 290 290 290 290
306 305 315 312 312 310 309 312 313 314 314 314 313 311 310 308 307 306 306 304 304 303 301 299 299 300 299 300 300 301 301 298 296 294 292 290 290 289 289 289 289 289 289 289
313 312 311 313 312 313 314 314 314 314 315 314 312 309 307 305 303 302 301 301 300 301 299 299 300 300 299 298 297 294 292 291 291 290 290 291 291 290 290 290 290 290 290 290
313 314 313 313 313 313 314 314 314 314 314 314 312 307 304 302 300 299 299 299 299 299 299 299 296 294 294 293 292 291 291 291 291 291 291 291 291 291 291 291 291 291 291 291
312 312 313 313 313 314 313 314 313 313 313 313 311 304 303 300 299 299 299 299 299 299 296 294 293 292 292 292 291 291 291 291 291 291 291 291 290 290 290 290 290 290 290 290
312 313 312 313 311 311 312 312 312 312 309 307 307 303 301 299 299 299 297 295 294 293 293 292 292 292 292 292 291 291 291 290 289 288 288 288 287 286 285 284 284 285 285 285
313 314 313 312 309 309 311 309 308 308 307 305 302 301 299 299 296 295 294 293 293 292 292 292 291 291 290 289 288 288 287 286 286 284 283 283 282 281 282 282 282 282 283 284
314 312 306 308 306 307 307 305 304 303 302 301 299 299 298 296 295 294 293 293 292 290 290 289 289 288 287 287 287 286 284 283 283 282 281 281 280 280 281 282 283 282 282 283
309 311 310 307 305 304 304 302 301 300 299 298 297 297 296 294 293 293 292 292 291 289 288 287 287 287 286 285 284 283 282 281 281 280 279 279 280 281 281 281 281 282 282 283
306 307 306 305 303 301 301 300 299 296 296 295 295 294 293 293 293 292 290 288 287 287 287 286 285 285 284 282 281 281 280 280 279 279 278 278 279 280 280 280 280 280 280 281
304 300 301 300 299 299 298 298 297 296 294 294 293 293 293 292 290 288 287 287 287 286 285 284 283 282 281 280 280 279 279 278 278 277 277 277 277 277 278 278 277 278 279 280
308 306 303 303 299 298 297 296 295 295 294 293 292 291 290 288 288 287 286 286 284 284 283 283 281 280 279 279 279 278 278 277 277 276 276 276 276 276 276 276 276 276 277 278
306 304 302 300 299 298 297 296 295 293 291 290 290 289 287 287 287 286 285 284 283 282 282 281 279 279 278 278 277 277 276 276 276 275 275 275 275 275 275 275 274 275 275 275
302 301 300 299 298 298 297 295 291 290 290 289 288 287 287 286 285 284 283 282 282 281 280 279 278 277 277 277 276 276 276 275 275 275 274 274 274 274 274 274 273 273 273 274
300 300 299 298 297 296 294 292 291 289 288 286 286 286 286 285 283 282 281 281 280 279 278 277 277 276 276 276 275 275 275 274 274 274 274 273 273 273 272 272 272 272 272 272
298 298 297 296 293 291 290 290 289 288 286 286 285 285 284 283 281 280 280 279 278 277 277 276 275 275 275 275 274 274 274 273 273 273 273 272 272 272 271 271 271 271 271 271
297 296 296 294 292 291 289 288 286 286 286 285 284 283 282 281 280 279 279 278 277 276 275 274 274 273 273 273 273 273 273 273 272 272 272 271 271 270 270 270 270 270 270 270
295 294 292 292 291 290 288 285 285 284 284 283 282 281 280 280 279 278 277 276 275 274 274 273 272 272 272 272 272 272 272 272 272 271 271 270 270 270 269 269 269 269 269 269
291 290 290 289 288 286 286 285 284 283 283 282 281 280 279 278 278 277 276 275 274 273 273 272 272 272 272 272 272 272 271 271 270 270 269 269 269 269 269 269 269 268 268 268
289 289 288 287 286 285 284 284 283 282 281 280 279 278 278 277 276 275 274 274 273 272 272 271 271 271 271 271 271 271 270 270 269 268 269 269 269 269 269 268 268 268 268 268
289 288 286 285 283 282 282 281 280 279 278 278 277 277 276 275 274 274 273 272 272 271 271 270 270 270 269 270 270 270 269 268 268 268 268 268 268 268 268 268 268 268 268 268
Wind_Speed
4 3 4 3 4 6 6 5 6 6 7 8 6 8 12 15 9 10 16 24 30 31 31 31 33 34 35 33 33 33 33 31 27 26 23 20 15 12 8 5 7 15 19 24
3 2 2 4 6 4 4 3 6 5 6 4 1 6 12 6 8 6 4 6 15 23 27 29 32 32 33 29 29 28 28 26 24 19 13 11 12 9 3 7 16 17 24 19
5 2 2 6 8 8 6 5 5 6 8 3 4 8 10 12 11 10 9 7 4 7 16 21 24 28 29 27 28 26 24 21 17 13 14 11 7 6 16 15 13 22 19 20
3 3 1 7 3 6 5 1 5 3 5 6 10 14 14 12 13 13 10 7 5 5 9 14 19 23 26 26 24 23 21 18 17 14 13 12 8 23 14 14 19 19 21 20
5 4 4 5 4 7 6 3 2 6 7 14 17 15 12 10 8 8 7 5 5 8 11 15 19 21 22 22 22 22 20 19 15 9 5 15 21 13 14 18 19 20 21 23
3 5 7 8 4 7 5 3 6 9 9 13 4 3 3 4 6 6 7 7 9 10 13 14 16 18 21 22 20 17 13 10 5 12 21 10 10 14 17 20 21 23 24 24
2 2 7 7 6 9 6 7 17 22 21 15 4 5 13 12 10 9 9 11 11 13 14 16 19 18 18 16 13 7 6 14 20 9 11 13 16 19 19 21 23 24 26 26
3 3 6 7 5 8 7 12 22 18 16 15 15 18 19 16 14 15 15 18 19 21 22 19 15 10 10 4 6 9 12 8 8 11 14 16 17 18 19 22 25 27 30 32
8 6 1 5 6 8 24 30 20 21 19 19 23 21 19 19 19 20 22 21 19 17 17 14 8 4 3 1 4 3 5 8 10 12 13 16 18 21 24 25 29 32 33 35
4 3 0 4 12 25 23 26 21 20 20 21 23 23 22 22 24 23 20 18 16 13 10 8 6 5 3 2 2 5 7 10 12 15 19 22 24 27 30 32 33 35 37 38
2 1 6 6 15 23 23 22 22 19 18 19 22 25 26 27 25 22 19 15 11 9 11 10 6 3 0 3 6 9 12 16 19 22 26 30 31 32 33 35 33 35 37 38
6 19 8 14 22 22 23 22 18 17 20 21 22 28 28 26 22 20 18 16 14 11 9 7 3 1 3 7 11 15 18 21 24 27 29 32 35 40 38 39 39 38 38 37
8 28 13 27 26 22 20 18 17 18 19 25 25 28 27 27 23 20 17 15 11 8 5 2 2 5 8 11 15 17 20 23 26 29 32 34 35 36 41 44 40 40 38 35
21 34 21 30 18 22 20 21 20 22 24 27 30 28 27 25 22 18 16 11 7 3 1 2 6 8 11 15 18 21 24 26 29 30 31 31 32 32 31 31 35 42 41 38
20 11 27 27 28 25 23 26 28 28 29 29 26 25 22 22 20 15 11 6 3 2 3 5 8 12 16 19 22 25 26 28 29 30 29 28 28 28 27 28 31 35 40 39
17 22 29 31 29 29 30 30 31 31 28 26 24 22 21 18 14 11 7 4 2 3 6 9 13 16 19 22 24 25 25 26 27 27 27 26 23 23 26 30 33 32 33 31
27 21 26 28 31 31 30 29 28 28 27 25 23 20 16 13 10 7 4 1 3 6 9 13 16 18 21 22 23 24 24 24 24 24 24 24 24 26 26 25 25 30 32 34
12 20 24 28 32 32 29 27 26 24 23 21 19 16 13 10 6 4 2 3 6 9 12 15 17 19 20 21 21 21 22 22 22 23 24 24 24 24 24 24 25 27 29 29
16 24 24 26 28 30 29 27 23 20 20 18 16 14 11 7 4 2 2 6 8 11 14 16 18 18 18 19 20 20 21 22 22 22 22 23 23 23 23 24 25 27 28 28
23 24 26 28 25 26 27 22 21 20 18 16 14 11 7 4 1 3 5 8 10 14 16 17 17 18 18 19 20 21 21 22 22 23 23 23 23 24 24 24 25 26 26 26
25 25 26 27 26 23 19 19 18 19 17 13 9 6 4 2 3 5 8 10 13 15 16 17 17 17 18 20 21 21 20 21 21 22 23 24 24 23 24 25 26 26 26 25
26 27 26 23 22 22 19 18 16 15 13 11 8 5 3 3 4 7 9 11 13 15 16 17 17 18 19 21 21 21 20 20 21 21 22 22 23 24 25 25 26 26 26 25
26 23 21 20 21 21 19 16 14 11 9 8 5 3 3 5 7 9 11 13 14 15 16 18 18 19 20 21 21 21 21 21 21 21 21 21 23 24 25 25 26 25 25 25
20 17 19 20 18 17 17 16 13 10 8 5 3 4 6 8 10 11 12 13 14 15 16 19 19 19 20 21 21 21 20 20 21 21 21 21 23 23 24 25 25 25 25 25
18 19 19 19 17 16 14 13 11 8 6 4 5 7 10 11 12 12 13 14 15 17 19 20 19 20 21 21 21 20 20 20 21 21 22 23 23 24 25 25 25 26 25 25
19 19 18 16 14 12 11 9 7 6 6 8 10 11 11 11 12 13 13 15 17 19 20 19 19 20 20 21 20 20 20 20 20 20 21 22 23 24 25 25 25 25 25 26
16 15 15 14 12 10 9 7 7 7 9 10 12 12 12 12 13 14 15 16 18 20 19 18 19 20 20 20 20 20 20 19 20 20 21 22 23 24 25 25 25 24 24 24
Wind_Direction
217 194 185 232 216 174 180 207 163 247 204 261 262 254 265 248 215 227 229 227 229 229 227 225 225 221 218 214 212 213 213 215 219 218 226 236 222 192 217 251 271 277 278 300
119 61 43 236 245 236 229 210 259 255 257 253 324 79 68 117 168 139 141 233 242 240 235 231 229 225 220 218 213 211 211 213 211 216 221 203 189 253 229 240 286 280 288 288
225 61 21 321 218 217 228 209 184 206 224 158 61 64 74 95 99 102 100 98 117 214 231 233 231 231 223 219 213 206 200 202 206 203 188 203 222 229 286 269 270 282 283 291
176 56 334 243 290 227 176 287 260 155 127 110 121 96 82 93 104 103 105 107 123 168 199 207 209 206 205 197 193 194 189 179 174 179 185 187 286 304 285 289 283 284 288 295
140 183 291 293 189 162 165 229 292 138 126 137 122 94 60 77 85 95 104 130 167 188 193 191 192 190 190 185 181 175 165 160 160 177 272 296 296 277 282 282 287 290 296 298
152 149 201 230 216 192 117 247 191 167 167 164 134 87 254 151 130 136 138 146 158 172 179 184 175 181 176 163 166 154 160 181 261 277 290 287 290 291 292 293 295 298 298 296
122 184 289 252 198 143 147 236 170 180 177 181 173 207 167 172 159 158 154 153 152 147 149 147 151 160 155 151 153 161 245 269 291 282 296 294 296 297 299 298 298 298 296 295
88 80 279 193 138 169 196 146 165 166 167 164 153 150 160 166 162 156 148 139 140 137 131 130 135 148 139 172 249 278 300 302 302 298 300 303 303 303 302 303 302 300 300 297
175 207 236 206 250 201 156 156 162 158 162 163 158 161 166 161 154 145 141 139 139 138 135 133 136 160 191 188 324 315 301 303 306 309 314 315 313 309 307 306 305 305 304 301
111 211 247 168 177 166 165 157 155 159 166 172 169 171 165 156 149 147 145 141 139 137 127 128 123 129 149 176 274 299 302 308 309 307 305 304 302 302 301 300 300 300 300 299
76 46 95 173 173 163 158 157 157 158 169 178 177 168 162 154 152 149 145 140 139 144 138 137 145 150 230 303 308 312 313 311 309 307 306 304 302 303 301 299 299 299 296 299
213 186 159 180 171 166 160 155 158 168 159 168 175 164 161 151 149 146 142 142 143 141 147 140 161 256 305 312 313 311 309 307 307 307 307 307 307 305 303 303 302 301 299 298
173 172 177 162 164 165 162 156 156 159 162 159 159 156 152 145 145 146 144 145 144 140 136 146 275 301 308 309 308 311 314 314 313 314 314 315 315 314 312 310 310 309 310 310
160 153 129 157 162 164 162 152 149 144 143 146 148 152 150 149 148 149 148 143 137 144 183 297 305 310 314 315 316 317 319 319 319 320 321 322 322 322 322 322 321 318 317 316
152 180 173 160 154 153 155 150 144 141 143 143 149 150 154 150 148 147 143 147 166 236 292 303 310 317 319 320 322 324 325 325 325 326 327 328 328 331 331 328 328 325 322 317
127 136 147 152 150 151 154 152 147 144 148 148 151 149 149 150 149 148 151 160 226 279 313 317 320 324 325 326 328 328 330 330 330 330 330 330 331 328 326 325 321 323 340 346
128 121 145 146 153 154 155 155 152 149 147 149 151 153 154 155 152 152 159 210 307 319 320 321 325 327 329 331 332 332 331 331 333 335 336 336 333 327 330 334 334 331 332 332
177 167 166 163 159 159 156 153 150 150 151 154 154 154 155 158 168 168 192 304 313 313 313 319 326 331 331 330 330 331 332 334 336 337 337 337 337 334 329 326 325 328 332 335
151 150 155 161 166 162 157 154 154 157 155 155 157 160 164 168 169 192 296 305 304 310 319 327 330 330 328 328 331 332 330 330 330 330 331 332 332 332 329 326 325 324 326 329
147 159 164 160 160 159 157 158 158 156 157 161 166 166 169 174 229 294 302 306 316 322 324 326 325 325 327 328 328 328 327 327 326 326 327 327 328 328 327 328 328 329 329 328
157 159 157 155 155 156 157 159 168 165 160 163 170 175 190 231 283 302 311 314 317 317 320 320 321 322 325 327 329 329 327 326 326 327 328 327 327 327 327 328 328 329 330 329
157 156 151 151 151 153 160 162 168 168 168 170 177 196 224 266 291 302 308 312 313 315 315 318 323 324 327 326 327 328 330 329 327 327 327 328 329 329 331 330 330 329 328 328
149 149 149 152 163 160 160 166 169 176 178 181 191 216 275 296 303 310 310 311 311 318 319 321 321 322 324 325 326 327 328 327 326 326 327 328 327 328 328 329 329 328 327 327
148 150 158 161 164 168 170 169 178 181 189 198 234 291 306 306 303 304 303 310 317 317 317 319 318 317 319 322 321 322 323 322 323 324 324 324 324 324 325 327 328 328 327 327
159 162 164 167 172 176 180 180 185 192 209 248 278 292 298 298 297 300 300 305 312 315 315 315 313 314 316 319 318 319 319 321 323 323 323 323 325 326 327 327 328 327 327 327
163 165 170 175 182 189 191 192 205 227 253 273 282 288 294 297 296 296 300 305 310 314 316 314 311 312 315 316 315 317 318 320 320 321 322 324 325 326 327 328 328 327 327 328
174 180 176 173 173 175 186 209 236 256 271 277 283 295 299 298 295 296 300 304 310 315 318 314 310 309 312 315 316 317 318 317 319 321 321 323 325 326 327 328 329 329 330 331